Temperature
4 3 3 3 3 2 2 4 5 5 4 4 3 2 1 -0 -1 -2 -3 -3 -3 -3 -3 -3 -4 -4 -4 -4 -5 -5 -5 -5 -5 -5 -6 -6 -6 -6 -6 -6 -6 -6 -6 -6
2 2 2 2 2 2 2 3 3 3 3 2 1 -0 -1 -1 -2 -3 -3 -3 -3 -3 -4 -4 -4 -4 -5 -5 -5 -5 -5 -6 -6 -6 -6 -6 -6 -7 -7 -7 -7 -7 -7 -7
3 2 1 3 2 2 1 1 2 2 2 1 -0 -1 -2 -2 -3 -3 -4 -4 -4 -4 -4 -4 -4 -5 -5 -5 -6 -6 -6 -6 -6 -6 -7 -7 -7 -7 -7 -7 -7 -7 -7 -7
2 1 3 4 -0 1 0 -0 -0 -0 -0 -1 -1 -3 -3 -3 -3 -4 -4 -4 -4 -4 -4 -5 -5 -5 -6 -6 -6 -6 -7 -7 -7 -7 -7 -7 -7 -7 -8 -8 -8 -8 -8 -8
2 3 3 2 -1 -1 -1 -1 -1 -1 -2 -2 -3 -3 -3 -3 -4 -4 -4 -4 -4 -5 -5 -5 -6 -6 -6 -6 -7 -7 -7 -7 -7 -8 -8 -8 -8 -8 -8 -8 -8 -8 -8 -8
1 2 3 3 -1 -3 -1 0 -1 -2 -2 -3 -3 -1 -1 -4 -4 -4 -4 -5 -5 -5 -6 -6 -6 -7 -7 -7 -7 -7 -8 -8 -8 -8 -8 -8 -8 -8 -8 -9 -9 -9 -9 -9
1 1 2 -0 -3 -2 1 1 -2 -3 -3 -4 -4 -3 -4 -5 -5 -5 -5 -6 -6 -6 -6 -7 -7 -7 -7 -7 -8 -8 -8 -8 -8 -9 -9 -9 -9 -9 -9 -9 -9 -9 -9 -9
-0 0 1 -3 -3 -1 -0 -2 -3 -3 -4 -4 -4 -5 -5 -5 -6 -6 -6 -6 -7 -7 -7 -7 -8 -8 -8 -8 -8 -9 -9 -9 -9 -9 -9 -10 -10 -10 -10 -10 -10 -10 -10 -10
-0 0 -2 -4 -3 -3 -3 -3 -4 -4 -4 -4 -5 -6 -6 -6 -6 -7 -7 -7 -7 -8 -8 -8 -8 -8 -9 -9 -9 -9 -9 -9 -9 -10 -10 -10 -10 -10 -10 -10 -10 -11 -10 -10
-3 -2 -4 -5 -4 -4 -4 -4 -4 -4 -5 -5 -5 -6 -7 -7 -7 -7 -8 -8 -8 -8 -8 -9 -9 -9 -9 -9 -10 -10 -10 -10 -10 -10 -10 -11 -11 -11 -11 -11 -11 -11 -11 -11
-4 -4 -5 -4 -4 -4 -4 -4 -5 -5 -5 -6 -6 -7 -7 -8 -8 -8 -8 -8 -9 -9 -9 -9 -9 -9 -10 -10 -10 -10 -10 -10 -11 -11 -11 -11 -11 -12 -12 -12 -12 -12 -12 -12
-2 -3 -4 -4 -5 -5 -5 -5 -5 -6 -6 -6 -7 -7 -8 -8 -8 -9 -9 -9 -9 -9 -9 -10 -10 -10 -10 -10 -11 -11 -11 -11 -11 -12 -12 -12 -12 -12 -12 -12 -12 -12 -12 -12
-5 -5 -5 -5 -5 -5 -5 -6 -6 -6 -7 -7 -8 -8 -8 -9 -9 -9 -9 -10 -10 -10 -10 -10 -10 -10 -11 -11 -11 -11 -11 -12 -12 -12 -12 -13 -13 -13 -13 -12 -12 -12 -12 -12
-5 -5 -6 -6 -6 -6 -6 -7 -7 -7 -7 -8 -8 -9 -9 -9 -9 -10 -10 -10 -10 -10 -11 -11 -11 -11 -11 -11 -12 -12 -12 -12 -13 -13 -13 -13 -13 -13 -13 -13 -13 -13 -13 -12
-6 -6 -6 -6 -7 -7 -7 -7 -8 -8 -8 -9 -9 -9 -9 -10 -10 -10 -10 -10 -11 -11 -11 -11 -11 -11 -12 -12 -12 -12 -12 -13 -13 -13 -13 -13 -13 -14 -14 -14 -13 -13 -13 -13
-7 -7 -7 -7 -7 -8 -8 -8 -8 -9 -9 -9 -9 -10 -10 -10 -10 -10 -11 -11 -11 -11 -11 -12 -12 -12 -12 -12 -12 -13 -13 -13 -13 -13 -14 -14 -14 -14 -14 -14 -14 -14 -14 -14
-7 -8 -8 -8 -8 -8 -8 -8 -9 -9 -9 -9 -10 -10 -10 -10 -11 -11 -11 -11 -12 -12 -12 -12 -12 -12 -13 -13 -13 -13 -13 -13 -14 -14 -14 -14 -14 -14 -14 -14 -14 -14 -14 -14
-7 -7 -7 -7 -8 -8 -9 -9 -9 -9 -9 -10 -10 -10 -11 -11 -11 -11 -11 -12 -12 -12 -12 -12 -13 -13 -13 -13 -13 -14 -14 -14 -14 -14 -14 -15 -15 -15 -15 -15 -15 -15 -14 -14
-7 -7 -8 -8 -8 -9 -9 -9 -10 -10 -10 -10 -11 -11 -11 -11 -12 -12 -12 -12 -12 -12 -13 -13 -13 -13 -13 -14 -14 -14 -14 -14 -14 -14 -15 -15 -15 -15 -15 -15 -15 -15 -15 -15
-8 -8 -8 -9 -9 -9 -9 -10 -10 -10 -11 -11 -11 -11 -11 -12 -12 -12 -12 -12 -13 -13 -13 -13 -13 -14 -14 -14 -14 -14 -14 -15 -15 -15 -15 -15 -15 -15 -15 -15 -15 -15 -15 -15
-9 -9 -9 -9 -9 -10 -10 -10 -11 -11 -11 -11 -11 -12 -12 -12 -12 -13 -13 -13 -13 -13 -13 -14 -14 -14 -14 -14 -14 -14 -15 -15 -15 -15 -15 -15 -15 -15 -15 -16 -16 -16 -16 -15
-9 -10 -10 -10 -10 -10 -11 -11 -11 -11 -12 -12 -12 -12 -12 -12 -13 -13 -13 -13 -13 -14 -14 -14 -14 -14 -15 -15 -15 -15 -15 -15 -15 -15 -16 -16 -16 -16 -16 -16 -16 -16 -16 -16
-10 -10 -11 -11 -11 -11 -11 -12 -12 -12 -12 -12 -12 -13 -13 -13 -13 -13 -13 -13 -14 -14 -14 -14 -14 -15 -15 -15 -15 -15 -15 -15 -15 -16 -16 -16 -16 -16 -16 -16 -16 -16 -16 -16
-11 -11 -11 -12 -12 -12 -12 -12 -12 -12 -12 -13 -13 -13 -13 -13 -13 -14 -14 -14 -14 -14 -14 -14 -15 -15 -15 -15 -15 -15 -15 -16 -16 -16 -16 -16 -16 -16 -16 -16 -16 -16 -16 -16
-11 -12 -12 -12 -12 -12 -13 -13 -13 -13 -13 -13 -13 -13 -13 -14 -14 -14 -14 -14 -14 -14 -14 -14 -15 -15 -15 -15 -15 -15 -16 -16 -16 -16 -16 -16 -16 -16 -16 -16 -16 -16 -16 -16
-12 -12 -12 -13 -13 -13 -13 -13 -13 -13 -13 -13 -14 -14 -14 -14 -14 -14 -14 -14 -14 -15 -15 -15 -15 -15 -15 -15 -15 -16 -16 -16 -16 -16 -16 -16 -16 -16 -16 -16 -16 -16 -16 -16
-13 -13 -13 -13 -13 -13 -14 -14 -14 -14 -14 -14 -14 -14 -14 -14 -14 -14 -15 -15 -15 -15 -15 -15 -15 -15 -15 -16 -16 -16 -16 -16 -16 -16 -16 -16 -16 -16 -16 -16 -16 -16 -16 -16
Wind_Speed
6 5 4 7 8 11 13 12 11 10 11 11 8 6 5 3 2 3 3 3 4 4 4 3 4 4 4 4 4 4 5 6 6 6 7 7 7 8 8 8 9 9 9 10
4 4 5 8 10 12 13 13 14 14 14 8 6 4 4 4 3 4 4 3 3 3 3 4 4 4 4 4 4 5 5 6 6 6 7 7 8 8 8 9 9 9 10 10
4 2 4 9 9 11 8 8 8 12 9 4 3 3 3 3 4 4 4 3 3 3 3 3 3 4 4 4 4 5 6 6 6 7 7 8 8 8 8 9 9 10 10 10
2 2 8 3 1 5 7 6 8 7 6 4 3 2 3 3 4 3 3 2 2 2 2 3 3 3 3 4 4 5 6 6 7 7 8 8 8 9 9 9 9 9 10 11
3 6 8 4 3 4 6 5 6 8 7 4 1 1 2 1 1 2 2 2 2 2 2 2 2 3 3 4 4 5 6 7 7 7 8 9 9 9 9 9 9 9 10 11
4 5 7 1 3 2 3 4 3 5 5 3 2 3 2 1 1 1 1 1 1 1 1 2 3 2 3 4 5 6 7 7 8 8 8 9 9 9 9 9 9 9 10 10
7 7 7 0 3 4 5 2 2 3 3 4 3 2 0 1 1 1 1 1 1 1 2 2 3 2 4 5 6 7 7 8 8 8 8 9 9 8 9 9 9 9 10 10
6 7 7 4 5 5 2 2 2 2 2 3 2 1 1 0 0 1 1 2 2 2 2 3 3 3 4 6 6 7 7 8 8 8 8 7 8 8 8 8 9 9 9 9
6 5 1 4 3 1 0 1 1 1 2 3 2 2 1 1 1 1 2 2 2 2 3 4 4 4 5 7 7 7 7 8 8 8 8 8 8 8 8 7 7 7 8 8
4 5 3 3 3 2 1 1 1 1 2 2 2 2 2 1 1 2 2 2 3 3 4 5 5 5 6 7 7 7 8 8 8 8 8 7 7 7 7 7 7 7 8 8
5 5 3 4 3 3 1 1 1 0 1 2 2 2 2 1 1 2 2 3 3 4 5 6 6 7 6 7 6 7 8 7 8 7 7 7 7 7 8 8 8 9 8 9
6 4 3 2 1 1 2 1 1 1 0 0 1 2 1 1 1 2 2 3 4 4 5 6 7 7 7 6 6 7 7 7 6 6 6 7 7 7 9 10 13 13 13 13
2 1 1 1 1 1 1 1 1 1 2 1 1 1 1 1 1 2 3 3 4 5 6 6 7 7 7 7 6 7 7 7 6 6 7 7 7 7 8 9 11 12 13 13
1 1 1 1 1 1 2 2 2 1 1 1 1 0 0 1 2 2 3 4 4 5 6 6 7 7 7 7 7 7 7 7 7 6 7 7 7 7 7 8 9 8 10 12
2 2 2 2 1 1 2 2 2 1 0 0 0 0 0 1 2 3 4 4 4 5 5 6 7 8 7 7 7 7 7 6 6 7 7 7 7 7 7 8 8 8 8 9
0 2 3 3 2 1 1 2 2 2 1 1 1 1 2 2 3 4 4 4 4 6 6 6 7 8 7 7 7 7 6 9 8 7 7 7 7 7 7 7 8 8 8 8
3 2 3 2 2 2 2 2 2 2 2 2 2 2 2 2 3 4 4 5 5 6 6 7 8 8 7 7 7 6 6 7 9 8 7 7 7 7 7 7 7 8 8 9
3 2 3 3 3 2 2 2 2 2 2 2 2 2 2 3 4 5 5 5 6 6 6 7 7 8 7 7 7 6 6 6 6 7 7 7 7 7 7 7 8 8 8 9
1 1 1 1 2 2 2 2 2 2 2 2 2 2 3 4 4 5 5 5 5 6 7 7 10 8 8 8 8 6 6 7 7 7 7 8 8 7 7 7 8 8 8 8
2 1 1 1 0 1 1 1 1 1 2 1 2 2 3 4 4 5 5 5 5 5 7 8 8 8 8 8 8 6 6 7 7 7 7 7 7 7 7 7 8 8 8 8
1 1 1 1 1 1 1 1 1 2 2 2 2 3 4 5 4 4 4 5 5 6 7 9 7 7 7 7 7 5 6 6 7 7 7 7 7 7 7 7 8 8 8 8
1 1 1 1 1 1 1 1 1 1 2 2 3 3 4 4 5 5 5 5 6 8 7 6 6 9 10 8 5 5 6 6 6 6 6 6 7 7 7 8 8 8 8 8
1 1 1 1 1 1 2 2 2 2 2 3 3 3 4 5 4 4 5 5 6 9 7 6 9 12 11 6 5 5 6 6 6 6 6 6 6 7 7 8 8 8 8 8
1 1 1 1 1 1 2 3 3 3 3 4 4 4 4 4 4 4 5 8 9 10 7 9 12 12 9 5 5 5 5 6 6 6 6 6 6 7 7 7 8 8 8 9
1 1 1 1 1 2 2 3 3 3 3 3 4 4 4 4 4 5 5 6 9 9 7 8 10 10 6 5 5 5 6 6 6 6 6 6 6 7 7 7 7 8 8 8
1 1 1 1 1 2 2 2 3 3 3 4 4 4 4 4 4 5 5 6 7 8 6 5 6 7 5 5 6 6 6 6 7 6 6 6 7 7 7 7 9 8 8 8
2 1 1 2 2 2 2 2 3 4 4 4 5 4 4 4 4 4 5 5 5 5 5 5 5 5 5 6 6 6 6 6 6 6 6 6 6 7 7 8 8 8 8 9
Wind_Direction
261 271 244 241 229 207 213 228 242 254 257 272 279 279 278 262 231 223 222 222 222 225 230 236 244 250 255 261 267 268 269 272 276 282 285 286 288 289 289 288 288 289 288 287
257 253 247 257 248 228 230 238 245 259 270 275 281 275 263 256 237 234 238 237 238 240 243 246 247 253 260 268 273 273 272 276 282 285 286 286 288 289 288 288 289 288 286 285
249 265 273 257 239 217 213 219 228 244 256 264 267 265 267 261 248 246 248 246 244 249 251 256 257 259 264 274 280 278 277 281 286 288 288 289 290 288 287 288 289 287 286 285
238 222 242 258 113 195 205 233 230 242 258 263 265 305 299 268 244 246 258 263 264 265 271 279 281 278 280 281 280 280 281 284 288 290 291 292 290 288 289 289 288 287 286 285
211 244 266 263 189 183 202 251 233 229 241 251 232 308 299 293 231 248 260 267 271 277 281 287 287 285 285 288 288 286 288 291 294 292 291 292 292 292 293 291 289 288 287 286
207 234 250 252 138 156 170 256 211 204 217 218 195 259 295 56 25 323 316 310 304 313 313 303 302 295 289 293 295 294 296 297 296 293 291 291 291 293 294 292 289 290 288 287
221 236 260 44 140 163 208 266 132 186 201 189 213 261 76 74 14 8 8 356 348 337 323 315 313 304 295 299 299 300 301 299 296 293 291 289 290 291 292 292 291 289 288 288
200 222 247 138 151 196 243 57 136 179 192 190 203 207 193 231 322 344 351 352 345 333 323 324 319 306 299 301 305 307 304 300 298 296 294 291 290 291 291 291 291 290 290 292
203 223 359 165 193 236 14 185 208 191 187 175 191 227 238 263 297 315 325 331 331 321 318 322 319 309 300 304 309 308 304 301 300 299 295 293 291 292 292 290 289 291 292 291
244 255 254 235 255 277 261 238 240 177 180 184 203 221 238 254 282 304 316 321 323 317 313 315 318 311 301 305 308 304 301 301 300 299 299 298 294 290 290 290 290 291 293 295
252 264 280 262 238 238 225 198 185 195 204 196 189 217 232 254 280 300 314 316 311 306 305 307 311 309 309 309 307 302 300 300 300 298 298 298 294 290 289 284 285 291 293 294
242 232 222 240 204 200 179 184 190 175 166 157 188 207 220 259 291 300 305 310 310 308 305 306 308 308 310 310 305 299 300 301 301 300 299 297 298 297 292 290 295 296 296 298
258 293 243 228 211 181 169 160 152 173 175 168 182 200 215 270 289 293 296 303 305 305 306 307 307 307 309 309 302 296 295 298 299 299 298 298 298 300 303 304 301 302 304 306
216 181 228 231 222 148 141 125 111 111 113 132 167 153 190 294 301 298 298 301 304 305 305 307 306 305 310 308 301 298 296 297 298 297 297 296 296 296 297 302 306 307 308 310
284 245 205 161 130 114 126 132 129 130 112 35 73 165 259 284 291 296 302 307 307 304 304 307 306 308 313 308 302 300 299 299 299 299 297 296 296 295 296 297 298 302 308 310
173 132 151 156 165 169 166 170 184 217 233 253 275 287 288 286 290 295 302 306 304 303 305 304 303 308 312 307 304 299 296 300 304 301 299 301 301 298 297 298 300 302 305 310
187 194 189 189 196 212 223 225 222 230 241 250 264 275 287 294 299 304 308 307 298 294 296 297 300 307 306 302 300 299 298 300 304 302 300 301 301 302 302 303 304 303 303 307
225 217 205 201 204 215 236 244 241 243 252 261 268 270 276 282 290 298 306 309 305 302 301 303 303 306 305 305 301 296 296 299 301 301 302 303 304 303 304 304 304 305 307 310
115 144 165 184 200 203 227 249 256 260 262 257 257 266 274 277 283 294 302 305 303 306 313 313 312 312 308 306 304 294 297 301 303 304 303 305 307 306 305 305 306 308 309 310
63 74 89 90 102 213 246 261 261 269 271 257 259 272 284 289 292 296 296 290 289 296 303 308 311 309 307 304 303 297 300 302 303 303 304 305 306 307 308 308 308 308 310 310
54 54 58 51 0 323 269 249 242 262 277 264 258 271 283 292 293 291 291 295 304 307 306 309 311 308 306 306 305 303 303 303 304 304 304 305 306 307 308 309 309 309 309 309
39 45 37 26 17 353 341 317 277 272 283 282 278 280 288 295 297 290 275 278 299 311 313 306 306 309 317 316 310 307 304 304 304 304 304 305 305 306 307 309 308 307 307 306
37 42 38 15 356 343 345 342 317 294 284 284 282 282 284 286 287 288 296 298 303 308 311 302 308 315 321 324 315 310 307 305 305 304 303 302 303 302 303 304 304 304 304 304
46 37 26 18 30 25 355 336 323 308 295 288 281 277 280 288 289 278 284 301 310 310 304 303 312 317 324 319 310 307 305 304 304 303 302 302 301 300 299 299 300 300 301 301
51 47 45 37 15 342 325 322 322 322 320 311 305 299 287 279 280 293 297 297 305 309 304 305 313 320 320 308 306 305 303 301 303 305 304 303 302 301 299 298 298 299 300 299
35 17 355 335 322 320 320 320 319 318 317 313 311 309 308 302 295 295 298 302 304 310 311 307 310 312 309 305 303 302 302 303 305 306 303 302 300 300 299 300 300 298 297 297
35 21 8 356 343 334 326 319 313 311 310 306 308 312 314 314 312 312 311 311 314 313 311 310 310 309 306 304 303 303 302 302 301 301 301 300 299 299 300 299 298 298 297 296
Height
1512 1513 1513 1512 1513 1517 1516 1508 1505 1497 1501 1500 1502 1504 1505 1506 1506 1506 1506 1506 1506 1506 1506 1506 1506 1506 1505 1504 1503 1502 1501 1499 1498 1496 1494 1492 1490 1488 1485 1483 1481 1478 1476 1474
1515 1514 1514 1512 1509 1510 1511 1509 1505 1503 1502 1502 1503 1504 1504 1504 1504 1504 1504 1504 1504 1504 1504 1503 1503 1502 1501 1500 1499 1498 1497 1495 1494 1492 1489 1487 1485 1482 1480 1478 1476 1473 1470 1468
1507 1513 1512 1503 1501 1504 1506 1506 1504 1500 1499 1500 1502 1502 1502 1502 1502 1502 1502 1502 1501 1501 1501 1500 1500 1499 1498 1497 1495 1494 1493 1491 1489 1487 1485 1482 1480 1478 1475 1473 1470 1468 1465 1463
1509 1513 1505 1494 1502 1501 1502 1503 1503 1501 1500 1501 1501 1502 1501 1501 1501 1500 1500 1499 1499 1499 1498 1498 1497 1496 1495 1493 1492 1490 1488 1486 1485 1482 1480 1478 1475 1473 1470 1468 1465 1463 1460 1457
1509 1501 1491 1495 1500 1502 1502 1500 1499 1499 1499 1500 1500 1500 1499 1499 1499 1499 1498 1498 1497 1497 1496 1495 1494 1493 1491 1490 1488 1486 1484 1482 1480 1478 1475 1473 1470 1468 1465 1463 1460 1457 1455 1452
1508 1500 1490 1489 1499 1500 1501 1496 1496 1497 1497 1498 1499 1498 1497 1498 1497 1497 1497 1496 1495 1494 1493 1492 1491 1490 1488 1486 1484 1482 1480 1478 1475 1473 1470 1468 1465 1463 1460 1457 1454 1452 1449 1446
1504 1498 1489 1495 1498 1500 1497 1490 1495 1495 1496 1497 1497 1497 1497 1496 1495 1495 1495 1494 1493 1492 1491 1490 1488 1487 1485 1483 1481 1479 1476 1474 1471 1468 1466 1463 1460 1458 1455 1452 1449 1447 1444 1441
1502 1499 1492 1496 1497 1496 1491 1493 1493 1494 1494 1494 1494 1494 1494 1494 1493 1493 1492 1491 1490 1489 1488 1487 1485 1484 1481 1479 1477 1475 1472 1469 1466 1464 1461 1458 1455 1453 1450 1447 1444 1441 1438 1435
1494 1492 1492 1492 1492 1492 1492 1492 1492 1493 1493 1493 1493 1493 1492 1492 1491 1491 1490 1489 1488 1487 1485 1484 1483 1480 1478 1476 1473 1470 1467 1465 1462 1459 1456 1453 1450 1448 1445 1442 1440 1437 1434 1431
1495 1490 1491 1491 1491 1491 1491 1491 1491 1492 1492 1491 1491 1491 1490 1490 1489 1488 1487 1486 1485 1484 1482 1481 1479 1477 1475 1472 1469 1466 1463 1460 1457 1454 1451 1448 1446 1443 1440 1438 1435 1432 1429 1426
1492 1490 1490 1488 1489 1489 1489 1490 1490 1490 1490 1490 1489 1489 1488 1488 1487 1486 1485 1484 1483 1481 1479 1478 1476 1473 1471 1468 1465 1462 1459 1456 1453 1450 1447 1444 1441 1438 1435 1433 1431 1428 1426 1423
1484 1485 1487 1487 1487 1488 1487 1487 1488 1488 1487 1488 1487 1487 1486 1486 1485 1484 1483 1481 1480 1478 1476 1474 1472 1469 1467 1464 1461 1458 1455 1452 1449 1445 1442 1439 1436 1433 1431 1429 1426 1423 1421 1419
1483 1483 1484 1484 1485 1486 1486 1486 1486 1486 1485 1485 1485 1485 1484 1483 1482 1481 1480 1479 1477 1475 1473 1471 1469 1466 1463 1460 1457 1454 1451 1448 1445 1441 1438 1435 1432 1429 1425 1423 1421 1418 1416 1413
1481 1482 1482 1482 1483 1484 1484 1484 1484 1484 1484 1483 1483 1482 1482 1481 1480 1479 1478 1476 1474 1473 1470 1468 1465 1463 1460 1457 1454 1451 1447 1444 1441 1438 1435 1431 1428 1425 1422 1418 1415 1412 1411 1408
1480 1480 1480 1481 1481 1482 1482 1482 1482 1482 1481 1481 1481 1480 1479 1478 1477 1476 1475 1473 1472 1470 1467 1465 1462 1459 1457 1453 1450 1447 1444 1440 1437 1434 1431 1428 1425 1422 1418 1415 1412 1409 1406 1403
1477 1478 1478 1479 1479 1480 1480 1480 1479 1479 1479 1479 1478 1478 1477 1476 1475 1474 1472 1471 1469 1466 1464 1462 1459 1456 1453 1450 1446 1443 1440 1437 1434 1431 1427 1424 1421 1418 1415 1412 1408 1405 1402 1399
1475 1476 1476 1477 1477 1478 1478 1478 1477 1477 1477 1477 1476 1475 1474 1473 1472 1471 1469 1468 1466 1464 1461 1458 1456 1453 1450 1447 1443 1440 1437 1433 1430 1427 1424 1421 1418 1415 1412 1409 1405 1402 1399 1397
1474 1475 1475 1475 1475 1475 1476 1476 1475 1475 1475 1474 1474 1473 1472 1470 1469 1468 1466 1464 1462 1460 1458 1455 1452 1449 1447 1443 1440 1437 1433 1430 1427 1424 1421 1418 1415 1411 1409 1405 1402 1399 1395 1393
1473 1473 1473 1474 1474 1474 1474 1473 1473 1473 1473 1472 1471 1470 1469 1468 1467 1465 1463 1461 1459 1456 1454 1451 1449 1446 1443 1440 1437 1434 1430 1427 1424 1421 1418 1414 1411 1408 1405 1402 1398 1395 1392 1389
1472 1472 1473 1472 1472 1472 1472 1471 1471 1471 1470 1470 1469 1468 1467 1465 1464 1462 1460 1458 1456 1453 1451 1448 1445 1442 1439 1436 1434 1430 1427 1424 1421 1418 1414 1411 1408 1405 1402 1399 1396 1393 1390 1387
1472 1471 1471 1471 1471 1470 1470 1469 1469 1468 1468 1467 1466 1465 1464 1463 1461 1459 1457 1455 1453 1450 1447 1445 1442 1439 1436 1433 1430 1427 1424 1421 1418 1415 1411 1408 1405 1402 1399 1396 1393 1390 1387 1384
1471 1470 1470 1470 1469 1468 1468 1467 1467 1466 1465 1465 1464 1462 1461 1460 1458 1456 1454 1452 1449 1447 1444 1442 1439 1436 1434 1431 1427 1424 1421 1418 1415 1412 1409 1406 1403 1399 1397 1394 1391 1388 1385 1382
1470 1469 1469 1468 1468 1467 1466 1466 1465 1464 1463 1462 1461 1460 1458 1456 1455 1452 1450 1448 1446 1443 1441 1438 1436 1433 1431 1427 1424 1421 1418 1414 1412 1409 1406 1403 1400 1397 1394 1391 1388 1385 1382 1379
1469 1468 1468 1467 1466 1466 1465 1464 1463 1462 1461 1460 1458 1457 1455 1453 1451 1450 1447 1445 1443 1440 1437 1435 1433 1430 1427 1424 1421 1417 1414 1411 1408 1406 1403 1400 1397 1394 1391 1388 1385 1382 1379 1376
1468 1467 1467 1466 1465 1464 1463 1462 1461 1460 1459 1457 1456 1454 1452 1450 1448 1446 1444 1441 1439 1436 1434 1431 1429 1426 1423 1420 1417 1414 1411 1409 1406 1403 1400 1397 1394 1391 1388 1386 1382 1379 1376 1373
1467 1466 1465 1465 1464 1463 1462 1461 1459 1458 1456 1455 1453 1451 1449 1447 1445 1443 1440 1438 1435 1433 1430 1428 1425 1423 1420 1417 1414 1412 1409 1406 1403 1400 1397 1394 1391 1389 1386 1383 1380 1376 1373 1370
1466 1465 1464 1463 1463 1461 1460 1459 1457 1456 1454 1452 1450 1449 1447 1445 1442 1440 1438 1435 1432 1430 1427 1425 1422 1419 1417 1414 1411 1409 1406 1403 1400 1397 1394 1392 1389 1386 1383 1380 1377 1374 1370 1367